sat.trackr.live / text

‹ back to catalog

ALOS-2

NORAD 39766 · 2014-029A

PAYLOAD ACTIVE UNKNOWN

§ Identity

Operator
Country
JPN
Launch date
2014-05-24
Launch site
TANSC
Launch vehicle
Mass (kg)
RCS (m²)
4.10

Purposes: earth_obs

External: N2YO · Heavens-Above · Gunter

§ Orbital elements

Epoch: 2026-09-20T05:32:34.875744Z

Period
97.33 min
Inclination
97.9222°
Eccentricity
0.0001530
Mean motion
14.79476547 rev/d
Perigee alt
629.9 km
Apogee alt
632.0 km
Semi-major
7,009.1 km
B*
1.2463e-4
RAAN
359.0337°
Arg perigee
92.8994°
Mean anomaly
267.2393°
Rev number
66,563

§ Raw data

ALOS-21 39766U 14029A   26263.23095921  .00000880  00000+0  12463-3 0  99912 39766  97.9222 359.0337 0001530  92.8994 267.2393 14.79476547665636

JSON: /api/v1/satellites/39766 · /tle

For live sub-satellite position, see the globe view (requires WebGL).

§ Visibility from observer

Set your observer location to see the next 7 days of passes ≥ 10°. The values pass through the URL so the page stays shareable.

No JS? Fill the form by hand. The geolocation button needs JavaScript.

§ Radio — SatNOGS DB

ModeDescriptionDownlinkUplink
FM S-Band telemetry 2.220 GHz

1 transmitter · refreshed weekly from db.satnogs.org